Location: PACMO
(41.3967°N, 90.3760°W)
Time: 18:38:39
(UTC-06:00)

NOAA 19 - Visible Passes

Search period start: 20 February 2017 00:00
Search period end: 02 March 2017 00:00
Orbit: 842 x 861 km, 99.1° (Epoch: 20 February)

Date Brightness Start Highest point End Pass type
(mag) Time Alt. Az. Time Alt. Az. Time Alt. Az.
20 Feb 7.5 03:16:30 10° NNE 03:17:52 18° NNE 03:17:52 18° NNE visible
20 Feb 7.1 04:58:28 10° NNW 04:59:54 15° NNW 04:59:54 15° NNW visible
21 Feb 7.6 03:05:09 10° NNE 03:06:24 17° NNE 03:06:24 17° NNE visible
21 Feb 7.0 04:46:38 10° NNW 04:48:26 17° NNW 04:48:26 17° NNW visible
22 Feb 7.7 02:53:50 10° NNE 02:54:57 16° NE 02:54:57 16° NE visible
22 Feb 6.8 04:34:54 10° N 04:36:59 20° NNW 04:36:59 20° NNW visible
23 Feb 7.8 02:42:36 10° NNE 02:43:29 14° NE 02:43:29 14° NE visible
23 Feb 6.7 04:23:13 10° N 04:25:31 22° NNW 04:25:31 22° NNW visible
24 Feb 8.0 02:31:26 10° NE 02:32:02 13° NE 02:32:02 13° NE visible
24 Feb 6.7 04:11:36 10° N 04:14:05 25° NNW 04:14:05 25° NNW visible
25 Feb 8.1 02:20:23 10° NE 02:20:35 11° NE 02:20:35 11° NE visible
25 Feb 6.6 04:00:03 10° N 04:02:38 28° N 04:02:38 28° N visible
26 Feb 6.6 03:48:30 10° N 03:51:10 29° N 03:51:10 29° N visible
27 Feb 6.6 03:37:01 10° NNE 03:39:43 30° NNE 03:39:43 30° NNE visible
27 Feb 7.1 05:20:07 10° NNW 05:21:45 12° NW 05:21:45 12° NW visible
28 Feb 6.7 03:25:35 10° NNE 03:28:16 30° NNE 03:28:16 30° NNE visible
28 Feb 6.9 05:07:56 10° NNW 05:10:18 15° NW 05:10:18 15° NW visible
01 Mar 6.9 03:14:11 10° NNE 03:16:49 29° NNE 03:16:49 29° NNE visible
01 Mar 6.7 04:56:00 10° NNW 04:58:51 19° NW 04:58:51 19° NW visible
